ATLAS 5 CENTAUR DEB (50214 NORAD) Tracking and Keplerian Element Data

This shows tracking and keplerian element data for the satellite.

Feedback or suggestion? Click here.




ElementValue
Catalog50214
NameATLAS 5 CENTAUR DEB
Epoch Orbit27
Epoch Day3.63147517
Epoch Year2022
RAAN113.6052
Inclination0.1107
Eccentricity0.0015385
Argument of Perigee343.8576
Mean Anonmoly58.002
Mean Motion0.99331817
Decay Rate-8.5E-07
L11 50214U 21118D 22003.63147517 -.00000085 00000+0 00000+0 0 9998
L22 50214 0.1107 113.6052 0015385 343.8576 58.0020 0.99331817 274

Live tracking and technical data element details for ATLAS 5 CENTAUR DEB (NORAD 50214). ATLAS 5 CENTAUR DEB can be tracked NOW for your location showing map with azimuth and elevation plus other details from your city location.

Track the satellite on the map from your city or location and see movement details for azimuth, elevation, latitude, longitude, range, height, and movement on the map or in text.







IsCatalogInMostPopularTable: catalog: 50214, numindb: 23
Update: records affected: 1



GetName: 50214 ATLAS 5 CENTAUR DEB

Hit Count: updated at: Mon, 23 May 2022 20:46:36 GMT